GW5451 Weather Reports


time (UTC)temp
F
wind
direction
speed
knots
gust
knots
rain 1hr
in
rain 24hr
in
rain mn
in
humidity
%
barometer
mb
20260506044542 59 352 0.0 0.0 0.00 0.00 0.00 30 1004.5
20260506043049 60 350 0.0 0.0 0.00 0.00 0.00 29 1004.5
20260506041535 61 352 0.0 0.0 0.00 0.00 0.00 28 1004.6
20260506040121 62 352 0.0 0.0 0.00 0.00 0.00 26 1004.6
20260506034530 63 352 0.0 0.0 0.00 0.00 0.00 24 1004.6
20260506033034 64 353 0.0 0.0 0.00 0.00 0.00 20 1004.4
20260506031602 66 172 0.9 0.0 0.00 0.00 0.00 17 1004.4
20260506030050 66 172 0.9 0.0 0.00 0.00 0.00 16 1004.3
20260506024614 67 171 0.0 0.0 0.00 0.00 0.00 15 1004.4
20260506023048 68 171 0.9 0.0 0.00 0.00 0.00 14 1004.5
20260506021533 69 174 0.9 0.0 0.00 0.00 0.00 14 1004.4
20260506020050 70 182 1.7 0.0 0.00 0.00 0.00 13 1004.3
20260506014537 71 350 0.9 0.0 0.00 0.00 0.00 12 1004.2
20260506013038 72 349 2.6 0.0 0.00 0.00 0.00 10 1004.1
20260506011546 72 339 2.6 0.0 0.00 0.00 0.00 10 1003.8
20260506010038 72 335 1.7 0.0 0.00 0.00 0.00 10 1003.7
20260506004602 73 350 0.9 0.0 0.00 0.00 0.00 10 1003.5
20260506003054 74 182 2.6 0.0 0.00 0.00 0.00 8 1003.2
20260506001545 75 185 1.7 0.0 0.00 0.00 0.00 7 1003.2
20260506000030 77 206 3.5 0.0 0.00 0.00 0.00 6 1003.3
20260505234549 77 233 3.5 0.0 0.00 0.00 0.00 5 1003.0
20260505233045 78 200 4.3 0.0 0.00 0.00 0.00 5 1002.9
20260505231548 78 233 5.2 0.0 0.00 0.00 0.00 5 1002.7
20260505230038 78 184 4.3 0.0 0.00 0.00 0.00 6 1002.8
20260505224602 79 188 3.5 0.0 0.00 0.00 0.00 7 1002.6
20260505223030 80 200 4.3 0.0 0.00 0.00 0.00 7 1002.8
20260505221552 79 237 6.1 0.0 0.00 0.00 0.00 6 1002.7
20260505220044 80 200 8.7 0.0 0.00 0.00 0.00 5 1002.6
20260505214601 80 223 7.8 0.0 0.00 0.00 0.00 6 1002.6
20260505213030 81 240 8.7 0.0 0.00 0.00 0.00 7 1002.5
20260505211538 80 188 7.0 0.0 0.00 0.00 0.00 5 1002.4
20260505204545 81 212 7.8 0.0 0.00 0.00 0.00 6 1002.6
20260505203109 81 233 7.0 0.0 0.00 0.00 0.00 6 1002.7
20260505201532 81 241 7.8 0.0 0.00 0.00 0.00 7 1002.6
20260505200046 81 168 7.8 0.0 0.00 0.00 0.00 7 1002.7
20260505194550 80 174 7.0 0.0 0.00 0.00 0.00 8 1002.8
20260505193037 80 229 9.6 0.0 0.00 0.00 0.00 6 1003.1
20260505191556 81 213 7.0 0.0 0.00 0.00 0.00 9 1003.1
20260505190107 81 212 8.7 0.0 0.00 0.00 0.00 7 1003.5
20260505184534 80 202 8.7 0.0 0.00 0.00 0.00 7 1003.6
20260505183054 79 202 7.8 0.0 0.00 0.00 0.00 8 1003.6
20260505181548 80 219 7.0 0.0 0.00 0.00 0.00 8 1004.0
20260505180038 79 202 8.7 0.0 0.00 0.00 0.00 8 1004.2
20260505174609 79 224 6.1 0.0 0.00 0.00 0.00 8 1004.1
20260505173044 80 226 7.8 0.0 0.00 0.00 0.00 10 1004.2
20260505171544 80 200 6.1 0.0 0.00 0.00 0.00 11 1004.3
20260505170033 78 248 6.1 0.0 0.00 0.00 0.00 12 1004.7
20260505164606 78 171 7.0 0.0 0.00 0.00 0.00 12 1004.7
20260505163030 78 267 7.0 0.0 0.00 0.00 0.00 14 1005.1
20260505161622 77 244 7.0 0.0 0.00 0.00 0.00 12 1005.2
20260505153031 76 284 5.2 0.0 0.00 0.00 0.00 15 1005.3
20260505151554 75 192 6.1 0.0 0.00 0.00 0.00 17 1005.3
20260505124544 62 37 0.0 0.0 0.00 0.00 0.00 41 1006.8
20260505123046 60 61 0.0 0.0 0.00 0.00 0.00 49 1006.7
20260505121538 58 64 0.9 0.0 0.00 0.00 0.00 55 1006.5
20260505120053 57 61 0.0 0.0 0.00 0.00 0.00 61 1006.2
20260505114603 54 349 0.0 0.0 0.00 0.00 0.00 61 1006.2
20260505113113 51 62 0.0 0.0 0.00 0.00 0.00 61 1006.2
20260505111546 50 62 0.0 0.0 0.00 0.00 0.00 60 1006.2
20260505101541 49 69 0.0 0.0 0.00 0.00 0.00 58 1005.5
20260505100045 49 69 0.0 0.0 0.00 0.00 0.00 57 1005.5
20260505094535 49 68 0.0 0.0 0.00 0.00 0.00 57 1005.5
20260505093102 50 68 0.0 0.0 0.00 0.00 0.00 57 1005.5
20260505091533 50 68 0.0 0.0 0.00 0.00 0.00 57 1005.4
20260505090047 50 66 0.0 0.0 0.00 0.00 0.00 56 1005.2
20260505084532 51 66 0.0 0.0 0.00 0.00 0.00 55 1005.2
20260505083056 51 65 0.0 0.0 0.00 0.00 0.00 55 1005.2
20260505081549 52 65 0.0 0.0 0.00 0.00 0.00 54 1005.2
20260505080033 52 65 0.0 0.0 0.00 0.00 0.00 54 1005.2
20260505074546 52 65 0.0 0.0 0.00 0.00 0.00 53 1005.0
20260505073043 53 64 0.0 0.0 0.00 0.00 0.00 53 1004.9
20260505071534 53 64 0.9 0.0 0.00 0.00 0.00 52 1004.8
20260505070118 53 65 0.0 0.0 0.00 0.00 0.00 51 1004.9
20260505064552 53 65 0.9 0.0 0.00 0.00 0.00 52 1005.1
20260505063044 53 65 0.0 0.0 0.00 0.00 0.00 52 1005.3
20260505061527 53 65 0.0 0.0 0.00 0.00 0.00 51 1005.2
20260505060056 53 65 0.0 0.0 0.00 0.00 0.00 49 1005.2
20260505054546 53 65 0.0 0.0 0.00 0.00 0.00 48 1005.2
20260505053032 53 65 0.0 0.0 0.00 0.00 0.00 47 1005.2
20260505051613 53 65 0.0 0.0 0.00 0.00 0.00 44 1005.2